Flag for Poland Weather past 2 weeks in Lidzbark Warmiński, Poland

Now
37 °F

Fog.


Feels Like: 34 °F
Forecast: 30 / 45 °F
Wind: 3 mph from Southwest

Location: Ketrzyn

Current Time: Mar 1, 2015 at 12:04:54 AM

Latest Report: Feb 28, 2015 at 11:00 PM


Visibility: 1 mi

Pressure: 30.05 "Hg

Humidity: 93%

Dew point: 35 °F

Location of Lidzbark WarmińskiLocation

Historic Weather in Lidzbark Warmiński — Graph

°F

Lidzbark Warmiński temperature yesterday

Maximum temperature yesterday: 42 °F (at 2:00 PM)
Minimum temperature yesterday: 36 °F (at 12:00 AM)
Average temperature yesterday: 38 °F

Past Weeks' High & Low Weather Summary

 TemperatureHumidityPressure
High46 °F (Feb 20, 2:00 PM)100% (Feb 13, 11:00 PM)30.68 "Hg (Feb 13, 11:00 PM)
Low19 °F (Feb 17, 7:00 AM)37% (Feb 17, 2:00 PM)29.50 "Hg (Feb 21, 4:00 PM)
Average34 °F80%30.10 "Hg
* Reported Feb 13 10:00 PM — Feb 28 10:00 PM, Lidzbark Warmiński, Weather by CustomWeather, © 2015

Note: Actual official high and low records may vary slightly from our data, if they occured in-between our weather recording intervals... More about our weather records

Advertising

Lidzbark Warmiński weather history for previous 24 hours

 ConditionsComfort  
Time TempWeatherWind HumidityBarometerVisibility
10:00 PM
Sat, Feb 28
38 °FFog.3 mph94%30.06 "Hg1 mi
9:00 PM39 °FFog.2 mph97%30.05 "Hg1 mi
8:00 PM39 °FChilly.2 mph97%30.04 "Hg1 mi
7:00 PM39 °FDrizzle. Overcast.2 mph96%30.05 "Hg1 mi
6:00 PM39 °FFog.1 mph96%30.04 "Hg1 mi
5:00 PM40 °FQuite cool.2 mph95%30.03 "Hg1 mi
4:00 PM40 °FSprinkles. Cloudy.2 mph94%30.03 "Hg2 mi
3:00 PM41 °FDrizzle. Cloudy.2 mph94%30.03 "Hg1 mi
2:00 PM42 °FFog.3 mph89%30.03 "Hg2 mi
1:00 PM41 °FFog.2 mph92%30.03 "Hg2 mi
12:00 PM41 °FFog.2 mph92%30.04 "Hg2 mi
11:00 AM40 °FFog.2 mph94%30.04 "Hg2 mi
10:00 AM39 °FFog.2 mph96%30.03 "Hg2 mi
9:00 AM38 °FFog.1 mph98%30.03 "Hg1 mi
8:00 AM36 °FFog.1 mph98%30.03 "Hg1 mi
7:00 AM36 °FChilly.1 mph98%30.02 "Hg1 mi
6:00 AM36 °FChilly.1 mph98%30.01 "Hg1 mi
5:00 AM36 °FDuststorm.1 mph98%30.01 "Hg1 mi
3:00 AM36 °FFog.No wind98%30.01 "Hg1 mi
2:00 AM36 °FFog.1 mph97%30.01 "Hg1 mi
1:00 AM36 °FFog.No wind97%30.01 "Hg1 mi
12:00 AM36 °FChilly.No wind97%30.02 "Hg1 mi
Weather by CustomWeather, © 2015

See weather overviewHow to use our weather pages